Погода в Трепольском

Россия / Рязанская область     54°20′28″N   38°50′11″E
темп.,
°C
ветер,
м/с
пор.,
м/с
влажн.,
%
обл.,
%
осадки,
мм/ч
давл.,
гПа
погр.,
м
27 октября, ср
ср2700:00+3юз71664100 0.0 1023451
03:00+3юз61565100 0.0 1021411
06:00+2юз71568100 0.0 1020399
09:00+3юз71669100 0.0 1019492
12:00+7юз81560100 0.0 1017703
15:00+8зюз81360100 0.0 1015895
18:00+6з81373100 0.0 1016912
21:00+6з6118285 0.1 1017646
28 октября, чт
чт2800:00+5зюз51188100 0.0 1017393
03:00+4зюз51189100 0.0 1017278
06:00+4юз51291100 0.0 1015290
09:00+6юз71487100 0.3 1013490
12:00+6юз71392100 0.9 1013569
15:00+7зюз61395100 1.6 1012514
18:00+8зсз61295100 0.3 1013568
21:00+8ссз61292100 0.4 1016685
29 октября, пт
пт2900:00+6ссв61091100 0.1 1021637
03:00+5ссв587797 0.1 1024830
06:00+5св3776100 0.0 1027383
09:00+5св348155 0.0 1029294
12:00+6в107349 0.0 1030531
15:00+7юз22655 0.0 1031747
18:00+5ююз34755 0.0 103162
21:00+4юз36785 0.0 1031105
30 октября, сб
сб3000:00+4юз498435 0.0 1032166
03:00+3зюз4987100 0.0 1032197
06:00+3зюз388983 0.0 1032175
09:00+4юз488497 0.0 1033220
12:00+8юз586545 0.0 1032400
15:00+9юз47635 0.0 1032499
18:00+6юз48805 0.0 1032161
21:00+5юз411865 0.0 1032221
31 октября, вс
вс3100:00+5юз411895 0.0 1032230
03:00+4юз411897 0.0 1032220
06:00+3юз411855 0.0 1031199
09:00+4юз511795 0.0 1032262
12:00+9юз69585 0.0 1031414
15:00+9ююз510545 0.0 1029481
18:00+6ююз410685 0.0 1029198
21:00+5ююз410700 0.0 1029199